Weather History for KNTD - August, 2014

Change the Weather History Date:

Monday, August 11, 2014

  Actual Average Record
Temperature  
Mean Temperature 70 °F -  
Max Temperature 80 °F 70 °F 80 °F (2003)
Min Temperature 61 °F 56 °F 53 °F (2001)
Cooling Degree Days 6    
Growing Degree Days 20 (Base 50)    
Moisture  
Dew Point 61 °F    
Average Humidity 74    
Maximum Humidity 87    
Minimum Humidity 58    
Precipitation  
Precipitation 0.00 in - - ()
Sea Level Pressure  
Sea Level Pressure 29.95 in    
Wind  
Wind Speed 5 mph (SW)    
Max Wind Speed 17 mph    
Max Gust Speed -    
Visibility 9 miles    
Events      
Averages and records for this station are not official NWS values.
T = Trace of Precipitation, MM = Missing Value Source: NWS Daily Summary

Daily Weather History Graph

Daily Weather History Graph

Search for Another Location

Airport or City:

Trip Planner

Search our weather history database for the weather conditions in past years. The results will help you decide how hot, cold, wet, or windy it might be!

Date:

Astronomy

Aug. 11, 2014 Rise Set
Actual Time 6:15 AM PDT 7:47 PM PDT
Civil Twilight 5:48 AM PDT 8:14 PM PDT
Nautical Twilight 5:16 AM PDT 8:46 PM PDT
Astronomical Twilight 4:42 AM PDT 9:20 PM PDT
Moon 8:26 PM PDT (8/11) 7:20 AM PDT (8/11)
Length of Visible Light 14h 26m
Length of Day
13h 32m
Full, 98% of the Moon is Illuminated
Aug 11
Full
Aug 17
Last Quarter
Aug 25
New
Sep 2
First Quarter
Sep 8
Full

Hourly Weather History & Observations

Time (PDT) Temp. Heat Index Dew Point Humidity Pressure Visibility Wind Dir Wind Speed Gust Speed Precip Events Conditions
12:56 AM 64.0 °F - 60.1 °F 87% 29.95 in 6.0 mi Calm Calm - N/A   Clear
1:56 AM 63.0 °F - 57.9 °F 84% 29.94 in 10.0 mi Calm Calm - N/A   Clear
2:56 AM 63.0 °F - 59.0 °F 87% 29.93 in 6.0 mi Calm Calm - N/A   Clear
3:14 AM 62.1 °F - 57.0 °F 84% 29.92 in 1.8 mi Calm Calm - N/A   Haze
3:23 AM 61.0 °F - 57.0 °F 87% 29.93 in 3.0 mi Calm Calm - N/A   Partly Cloudy
3:56 AM 61.0 °F - 57.0 °F 87% 29.94 in 10.0 mi SSE 4.6 mph - N/A   Partly Cloudy
4:11 AM 63.0 °F - 57.9 °F 84% 29.93 in 10.0 mi South 3.5 mph - N/A   Mostly Cloudy
4:56 AM 66.9 °F - 62.1 °F 84% 29.94 in 10.0 mi SSE 5.8 mph - N/A   Overcast
5:35 AM 64.0 °F - 59.0 °F 84% 29.94 in 9.0 mi ENE 4.6 mph - N/A   Scattered Clouds
5:56 AM 64.0 °F - 60.1 °F 87% 29.94 in 8.0 mi ENE 5.8 mph - N/A   Scattered Clouds
6:56 AM 66.0 °F - 61.0 °F 84% 29.95 in 5.0 mi NE 3.5 mph - N/A   Haze
7:56 AM 69.1 °F - 62.1 °F 78% 29.96 in 6.0 mi Calm Calm - N/A   Haze
8:56 AM 73.0 °F - 63.0 °F 71% 29.96 in 10.0 mi SSE 8.1 mph - N/A   Partly Cloudy
9:56 AM 75.9 °F - 64.0 °F 67% 29.97 in 10.0 mi SSE 16.1 mph - N/A   Partly Cloudy
10:56 AM 77.0 °F - 64.0 °F 64% 29.97 in 10.0 mi South 16.1 mph - N/A   Partly Cloudy
11:56 AM 80.1 °F 81.7 °F 64.0 °F 58% 29.97 in 10.0 mi South 17.3 mph - N/A   Partly Cloudy
12:22 PM 79.0 °F - 64.0 °F 60% 29.97 in 10.0 mi SSW 15.0 mph - N/A   Mostly Cloudy
12:56 PM 77.0 °F - 63.0 °F 62% 29.97 in 10.0 mi SSW 15.0 mph - N/A   Mostly Cloudy
1:48 PM 77.0 °F - 63.0 °F 62% 29.96 in 10.0 mi SSW 12.7 mph - N/A   Scattered Clouds
1:56 PM 77.0 °F - 63.0 °F 62% 29.96 in 10.0 mi SW 12.7 mph - N/A   Scattered Clouds
2:56 PM 77.0 °F - 62.1 °F 60% 29.95 in 10.0 mi SSW 11.5 mph - N/A   Scattered Clouds
3:56 PM 77.0 °F - 63.0 °F 62% 29.94 in 10.0 mi WSW 8.1 mph - N/A   Scattered Clouds
4:56 PM 75.0 °F - 62.1 °F 64% 29.94 in 10.0 mi West 11.5 mph - N/A   Scattered Clouds
5:56 PM 73.0 °F - 62.1 °F 68% 29.94 in 10.0 mi West 10.4 mph - N/A   Mostly Cloudy
6:22 PM 71.1 °F - 61.0 °F 70% 29.93 in 10.0 mi West 11.5 mph - N/A   Mostly Cloudy
6:56 PM 70.0 °F - 61.0 °F 73% 29.93 in 10.0 mi WNW 8.1 mph - N/A   Mostly Cloudy
7:25 PM 69.1 °F - 60.1 °F 73% 29.93 in 10.0 mi NW 5.8 mph - N/A   Mostly Cloudy
7:56 PM 68.0 °F - 60.1 °F 76% 29.94 in 10.0 mi NW 6.9 mph - N/A   Scattered Clouds
8:56 PM 68.0 °F - 60.1 °F 76% 29.94 in 10.0 mi North 4.6 mph - N/A   Partly Cloudy
9:56 PM 68.0 °F - 60.1 °F 76% 29.95 in 10.0 mi NW 3.5 mph - N/A   Partly Cloudy
10:56 PM 66.0 °F - 60.1 °F 81% 29.95 in 10.0 mi West 3.5 mph - N/A   Partly Cloudy
11:56 PM 66.0 °F - 60.1 °F 81% 29.96 in 10.0 mi NW 3.5 mph - N/A   Scattered Clouds